Selinsgrove, PA

12:55 PM EDT on June 22, 2017 (GMT -0400)
Penn Valley

Weather History for KSEG - October, 2012

Change the Weather History Date:

Friday, October 19, 2012

  Actual Average (KIPT) Record (KIPT)
Temperature  
Mean Temperature 58 °F -  
Max Temperature 63 °F 58 °F 82 °F (1963)
Min Temperature 54 °F 38 °F 24 °F (1974)
Degree Days  
Heating Degree Days 7    
Growing Degree Days 8 (Base 50)    
Moisture  
Dew Point 56 °F    
Average Humidity 95    
Maximum Humidity 100    
Minimum Humidity 88    
Precipitation  
Precipitation 0.44 in - - ()
Sea Level Pressure  
Sea Level Pressure 29.74 in    
Wind  
Wind Speed 1 mph (North)    
Max Wind Speed 6 mph    
Max Gust Speed -    
Visibility 6 miles    
Events Fog , Rain , Thunderstorm    
Averages and records for this station are not official NWS values.
T = Trace of Precipitation, MM = Missing Value Source: NWS Daily Summary

Daily Weather History Graph

Daily Weather History Graph

Search for Another Location

Airport or City:

Trip Planner

Search our weather history database for the weather conditions in past years. The results will help you decide how hot, cold, wet, or windy it might be!

Date:

Astronomy

Oct. 19, 2012 Rise Set
Actual Time 7:23 AM EDT 6:20 PM EDT
Civil Twilight 6:55 AM EDT 6:48 PM EDT
Nautical Twilight 6:23 AM EDT 7:19 PM EDT
Astronomical Twilight 5:52 AM EDT 7:51 PM EDT
Moon 12:05 PM EDT (10/19) 9:55 PM EDT (10/19)
Length of Visible Light 11h 52m
Length of Day
10h 56m
Waxing Crescent, 23% of the Moon is Illuminated
Oct 19
Waxing Crescent
Oct 21
First Quarter
Oct 29
Full
Nov 6
Last Quarter
Nov 13
New

Hourly Weather History & Observations

Time (EDT) Temp. Dew Point Humidity Pressure Visibility Wind Dir Wind Speed Gust Speed Precip Events Conditions
12:14 AM 57.2 °F 55.4 °F 94% 29.85 in 5.0 mi Calm Calm - 0.06 in Rain Rain
12:25 AM 55.4 °F 55.4 °F 100% 29.84 in 2.5 mi Calm Calm - 0.12 in Rain Heavy Rain
12:41 AM 55.4 °F 55.4 °F 100% 29.84 in 5.0 mi WNW 5.8 mph - 0.15 in Rain Light Rain
12:53 AM 57.0 °F 55.9 °F 96% 29.86 in 10.0 mi WNW 5.8 mph - 0.15 in Rain Light Rain
1:09 AM 57.2 °F 55.4 °F 94% 29.85 in 10.0 mi Calm Calm - 0.00 in   Overcast
1:53 AM 57.0 °F 55.0 °F 93% 29.84 in 9.0 mi NNW 3.5 mph - 0.01 in Rain Light Rain
2:53 AM 55.9 °F 55.0 °F 97% 29.83 in 4.0 mi North 3.5 mph - 0.09 in Rain Rain
3:43 AM 55.4 °F 55.4 °F 100% 29.80 in 10.0 mi North 3.5 mph - 0.02 in   Overcast
3:53 AM 55.0 °F 55.0 °F 100% 29.80 in 10.0 mi Calm Calm - 0.02 in   Mostly Cloudy
4:07 AM 55.4 °F 55.4 °F 100% 29.80 in 10.0 mi Calm Calm - N/A   Mostly Cloudy
4:53 AM 55.0 °F 55.0 °F 100% 29.80 in 10.0 mi Calm Calm - N/A   Overcast
5:53 AM 55.0 °F 55.0 °F 100% 29.78 in 10.0 mi Calm Calm - N/A   Overcast
6:53 AM 55.0 °F 54.0 °F 96% 29.78 in 10.0 mi Calm Calm - N/A   Overcast
7:53 AM 55.0 °F 54.0 °F 96% 29.78 in 2.5 mi West 3.5 mph - 0.07 in Rain Rain
7:55 AM 55.4 °F 53.6 °F 94% 29.78 in 1.8 mi Calm Calm - 0.02 in Rain , Thunderstorm Heavy Thunderstorms and Rain
8:10 AM 55.4 °F 55.4 °F 100% 29.78 in 3.0 mi Calm Calm - 0.09 in Rain , Thunderstorm Light Rain
8:53 AM 55.9 °F 55.0 °F 97% 29.79 in 9.0 mi Calm Calm - 0.09 in Thunderstorm Overcast
9:05 AM 57.2 °F 55.4 °F 94% 29.78 in 9.0 mi Calm Calm - N/A   Overcast
9:13 AM 57.2 °F 55.4 °F 94% 29.77 in 9.0 mi Calm Calm - N/A   Overcast
9:41 AM 57.2 °F 55.4 °F 94% 29.76 in 10.0 mi East 5.8 mph - N/A   Overcast
9:53 AM 57.0 °F 55.0 °F 93% 29.75 in 10.0 mi East 3.5 mph - N/A   Mostly Cloudy
10:03 AM 57.2 °F 55.4 °F 94% 29.75 in 10.0 mi ESE 5.8 mph - N/A   Mostly Cloudy
10:14 AM 57.2 °F 55.4 °F 94% 29.76 in 10.0 mi East 3.5 mph - N/A   Overcast
10:29 AM 57.2 °F 55.4 °F 94% 29.75 in 10.0 mi NE 4.6 mph - N/A   Overcast
10:53 AM 59.0 °F 55.9 °F 90% 29.75 in 10.0 mi NW 3.5 mph - N/A   Overcast
11:25 AM 59.0 °F 57.2 °F 94% 29.74 in 10.0 mi Calm Calm - N/A   Overcast
11:53 AM 60.1 °F 57.0 °F 90% 29.73 in 10.0 mi Calm Calm - N/A   Overcast
12:00 PM 60.8 °F 57.2 °F 88% 29.73 in 10.0 mi Calm Calm - N/A   Overcast
12:16 PM 60.8 °F 57.2 °F 88% 29.72 in 4.0 mi Calm Calm - N/A   Overcast
12:34 PM 60.8 °F 57.2 °F 88% 29.72 in 3.0 mi Calm Calm - N/A   Overcast
12:53 PM 60.1 °F 57.9 °F 93% 29.72 in 8.0 mi Calm Calm - N/A   Overcast
1:53 PM 60.1 °F 57.9 °F 93% 29.70 in 6.0 mi Calm Calm - N/A   Overcast
2:53 PM 61.0 °F 57.9 °F 90% 29.69 in 6.0 mi Calm Calm - 0.00 in   Overcast
3:53 PM 62.1 °F 59.0 °F 90% 29.67 in 7.0 mi Calm Calm - N/A   Overcast
4:31 PM 62.6 °F 59.0 °F 88% 29.66 in 6.0 mi Calm Calm - N/A   Overcast
4:53 PM 62.1 °F 59.0 °F 90% 29.66 in 6.0 mi Calm Calm - N/A   Overcast
5:17 PM 62.6 °F 59.0 °F 88% 29.65 in 6.0 mi Calm Calm - N/A   Mostly Cloudy
5:53 PM 61.0 °F 59.0 °F 93% 29.65 in 5.0 mi ESE 3.5 mph - N/A   Scattered Clouds
6:48 PM 57.2 °F 57.2 °F 100% 29.63 in 1.8 mi Calm Calm - N/A   Clear
6:53 PM 57.0 °F 55.9 °F 96% 29.64 in 0.8 mi Calm Calm - N/A   Clear
7:02 PM 57.2 °F 55.4 °F 94% 29.64 in 1.2 mi Calm Calm - N/A   Clear
7:07 PM 55.4 °F 55.4 °F 100% 29.64 in 0.8 mi Calm Calm - N/A   Mist
7:53 PM 54.0 °F 53.1 °F 97% 29.65 in 0.2 mi Calm Calm - N/A Fog Fog
8:53 PM 54.0 °F 54.0 °F 100% 29.65 in 0.2 mi West 3.5 mph - N/A Fog Fog
9:53 PM 55.0 °F 55.0 °F 100% 29.65 in 0.2 mi WNW 3.5 mph - N/A Fog Fog
10:53 PM 55.9 °F 55.9 °F 100% 29.65 in 0.2 mi Calm Calm - 0.01 in Fog Fog
11:53 PM 55.9 °F 55.0 °F 97% 29.65 in 0.2 mi Calm Calm - N/A Fog Fog